User: anonymous   Login
Location: Unspecified
(0.0000°N, 0.0000°E)
Time: 08:09:58
(UTC+00:00)
Language:

CP4 - Orbit

View from above orbital plane
View from above orbital plane
View from above satellite
View from above satellite

Ground track
Ground track

The orbit data is extracted from the following two-line orbital elements,

1 31132U 07012Q   19345.83546903 +.00000055 +00000-0 +21204-4 0  9993
2 31132 098.1451 288.2455 0080382 183.7453 176.3155 14.59128377672804
Epoch (UTC): 11 December 2019 20:03:04
Eccentricity: 0.0080382
inclination: 98.1451°
perigee height: 639 km
apogee height: 753 km
right ascension of ascending node: 288.2455°
argument of perigee: 183.7453°
revolutions per day: 14.59128377
mean anomaly at epoch: 176.3155°
orbit number at epoch: 67280

The dashed part of the orbit path shows where the satellite is in the earth's shadow,  

DLR